Location: ?????
(31.8092°N, 35.2590°E)
Time: 01:39:19
(UTC+00:00)

MOS 1 - Pass Details

Date: 20 June 2021
Orbit: 877 x 892 km, 99.1° (Epoch: 04 August)

Event Time Altitude Azimuth Distance (km) Brightness Sun altitude
Exits shadow 17:38:43 - 151° (SSE) 2,618 6.2 -10.0°
Reaches altitude 10° 17:38:54 10° 151° (SSE) 2,550 6.1 -10.1°
Maximum altitude 17:44:28 59° 73° (ENE) 1,027 4.5 -11.0°
Drops below altitude 10° 17:50:03 10° 356° (N) 2,563 7.3 -12.0°
Sets 17:52:29 0° 352° (N) 3,505 8.2 -12.4°
